• In Russia
  • List of Countries
  • For 7 days
  • Water Temperature
  • Satellite Maps
  • Weather Map
  • Weather Widgets
  • user-avatar
    Login

    Hourly Weather Stepanakert

    Today, 21 January, Saturday

    Time Temperature Precipitation Wind Pressure Humidity
    00:00 -3°C° 0 mm 0 mps 695 mmHg 92%
    01:00 -4°C° 0 mm 0 mps 695 mmHg 92%
    02:00 -4°C° 0 mm 0 mps 695 mmHg 92%
    03:00 -4°C° 0 mm 0 mps 695 mmHg 92%
    04:00 -4°C° 0 mm 0 mps 695 mmHg 91%
    05:00 -4°C° 0 mm 0 mps 694 mmHg 91%
    06:00 -4°C° 0 mm 0 mps 694 mmHg 91%
    07:00 -3°C° 0 mm 0 mps 695 mmHg 84%
    08:00 -1°C° 0 mm 0 mps 695 mmHg 78%
    09:00 0°C° 0 mm 0 mps 696 mmHg 72%
    10:00 +2°C° 0 mm 1 mps 696 mmHg 67%
    11:00 +3°C° 0 mm 1 mps 696 mmHg 63%
    12:00 +4°C° 0 mm 1 mps 695 mmHg 58%
    13:00 +4°C° 0 mm 1 mps 695 mmHg 59%
    14:00 +3°C° 0 mm 2 mps 695 mmHg 60%
    15:00 +3°C° 0 mm 2 mps 694 mmHg 61%
    16:00 +2°C° 0 mm 1 mps 694 mmHg 68%
    17:00 0°C° 0 mm 1 mps 694 mmHg 76%
    18:00 -2°C° 0 mm 1 mps 694 mmHg 83%
    19:00 -2°C° 0 mm 1 mps 694 mmHg 84%
    20:00 -3°C° 0 mm 0 mps 694 mmHg 84%
    21:00 -3°C° 0 mm 0 mps 694 mmHg 84%
    22:00 -2°C° 0 mm 1 mps 694 mmHg 83%
    23:00 -2°C° 0 mm 1 mps 694 mmHg 83%

    Tomorrow, 22 January, Sunday

    Time Temperature Precipitation Wind Pressure Humidity
    00:00 -2°C° 0 mm 1 mps 694 mmHg 82%
    01:00 -3°C° 0 mm 1 mps 694 mmHg 81%
    02:00 -3°C° 0 mm 1 mps 694 mmHg 81%
    03:00 -3°C° 0 mm 1 mps 694 mmHg 80%
    04:00 -3°C° 0 mm 1 mps 694 mmHg 79%
    05:00 -3°C° 0 mm 1 mps 694 mmHg 78%
    06:00 -3°C° 0 mm 1 mps 694 mmHg 77%
    07:00 -2°C° 0 mm 1 mps 694 mmHg 73%
    08:00 -1°C° 0 mm 1 mps 695 mmHg 69%
    09:00 +1°C° 0 mm 1 mps 695 mmHg 64%
    10:00 +2°C° 0 mm 1 mps 695 mmHg 61%
    11:00 +2°C° 0 mm 2 mps 695 mmHg 57%
    12:00 +3°C° 0 mm 2 mps 695 mmHg 53%
    13:00 +3°C° 0 mm 2 mps 695 mmHg 55%
    14:00 +3°C° 0 mm 2 mps 695 mmHg 56%
    15:00 +2°C° 0 mm 2 mps 695 mmHg 58%
    16:00 +1°C° 0 mm 2 mps 695 mmHg 63%
    17:00 +1°C° 0 mm 1 mps 696 mmHg 68%
    18:00 -1°C° 0 mm 1 mps 697 mmHg 74%
    19:00 -1°C° 0.1 mm 1 mps 697 mmHg 75%
    20:00 -1°C° 0.1 mm 1 mps 698 mmHg 76%
    21:00 -1°C° 0.1 mm 1 mps 698 mmHg 76%
    22:00 -1°C° 0.1 mm 1 mps 699 mmHg 78%
    23:00 -1°C° 0.1 mm 1 mps 699 mmHg 79%

    Day after tomorrow, 23 January, Monday

    Time Temperature Precipitation Wind Pressure Humidity
    00:00 -2°C° 0.1 mm 1 mps 700 mmHg 80%
    01:00 -2°C° 0 mm 1 mps 700 mmHg 82%
    02:00 -3°C° 0 mm 1 mps 700 mmHg 84%
    03:00 -3°C° 0 mm 1 mps 700 mmHg 86%
    04:00 -4°C° 0 mm 1 mps 700 mmHg 85%
    05:00 -4°C° 0 mm 1 mps 701 mmHg 85%
    06:00 -4°C° 0 mm 1 mps 701 mmHg 84%
    07:00 -3°C° 0 mm 1 mps 701 mmHg 78%
    08:00 -1°C° 0 mm 1 mps 702 mmHg 73%
    09:00 0°C° 0 mm 1 mps 702 mmHg 67%
    10:00 +1°C° 0 mm 1 mps 702 mmHg 63%
    11:00 +2°C° 0 mm 1 mps 702 mmHg 59%
    12:00 +3°C° 0 mm 1 mps 702 mmHg 55%
    13:00 +4°C° 0 mm 1 mps 702 mmHg 57%
    14:00 +4°C° 0 mm 1 mps 701 mmHg 58%
    15:00 +4°C° 0 mm 1 mps 701 mmHg 59%
    16:00 +2°C° 0 mm 1 mps 701 mmHg 67%
    17:00 0°C° 0 mm 1 mps 700 mmHg 74%
    18:00 -4°C° 0 mm 0 mps 700 mmHg 81%
    19:00 -3°C° 0 mm 1 mps 700 mmHg 80%
    20:00 -3°C° 0 mm 1 mps 700 mmHg 78%
    21:00 -3°C° 0 mm 1 mps 701 mmHg 76%
    22:00 -3°C° 0 mm 1 mps 701 mmHg 75%
    23:00 -3°C° 0 mm 1 mps 700 mmHg 74%

    24 January, Tuesday

    Time Temperature Precipitation Wind Pressure Humidity
    00:00 -3°C° 0 mm 1 mps 700 mmHg 73%
    01:00 -3°C° 0 mm 1 mps 700 mmHg 72%
    02:00 -3°C° 0 mm 1 mps 700 mmHg 72%
    03:00 -3°C° 0 mm 1 mps 700 mmHg 71%
    04:00 -3°C° 0 mm 1 mps 700 mmHg 70%
    05:00 -3°C° 0 mm 1 mps 700 mmHg 69%
    06:00 -3°C° 0 mm 1 mps 700 mmHg 69%
    07:00 -2°C° 0 mm 1 mps 700 mmHg 64%
    08:00 0°C° 0 mm 1 mps 701 mmHg 59%
    09:00 +1°C° 0 mm 1 mps 701 mmHg 54%
    10:00 +3°C° 0 mm 1 mps 701 mmHg 51%
    11:00 +4°C° 0 mm 1 mps 701 mmHg 48%
    12:00 +6°C° 0 mm 1 mps 700 mmHg 45%
    13:00 +6°C° 0 mm 1 mps 700 mmHg 47%
    14:00 +5°C° 0 mm 1 mps 699 mmHg 50%
    15:00 +5°C° 0 mm 1 mps 698 mmHg 52%
    16:00 +3°C° 0 mm 1 mps 698 mmHg 60%
    17:00 +1°C° 0 mm 1 mps 698 mmHg 68%
    18:00 -2°C° 0 mm 1 mps 697 mmHg 76%
    19:00 -2°C° 0 mm 1 mps 697 mmHg 73%
    20:00 -2°C° 0 mm 1 mps 697 mmHg 71%
    21:00 -2°C° 0 mm 1 mps 697 mmHg 69%
    22:00 -2°C° 0 mm 1 mps 697 mmHg 67%
    23:00 -2°C° 0 mm 1 mps 696 mmHg 65%

    25 January, Wednesday

    Time Temperature Precipitation Wind Pressure Humidity
    00:00 -4°C° 0 mm 2 mps 696 mmHg 63%
    01:00 -4°C° 0 mm 2 mps 695 mmHg 62%
    02:00 -4°C° 0 mm 2 mps 695 mmHg 60%
    03:00 -4°C° 0 mm 2 mps 695 mmHg 59%
    04:00 -4°C° 0 mm 2 mps 694 mmHg 58%
    05:00 -4°C° 0 mm 2 mps 694 mmHg 58%
    06:00 -4°C° 0 mm 2 mps 693 mmHg 57%
    07:00 -2°C° 0 mm 2 mps 693 mmHg 54%
    08:00 -1°C° 0 mm 2 mps 693 mmHg 51%
    09:00 +2°C° 0 mm 2 mps 693 mmHg 48%
    10:00 +3°C° 0 mm 2 mps 692 mmHg 45%
    11:00 +5°C° 0 mm 2 mps 692 mmHg 42%
    12:00 +7°C° 0 mm 2 mps 691 mmHg 39%
    13:00 +7°C° 0 mm 2 mps 691 mmHg 41%
    14:00 +7°C° 0 mm 2 mps 690 mmHg 43%
    15:00 +6°C° 0 mm 2 mps 690 mmHg 45%
    16:00 +5°C° 0 mm 2 mps 689 mmHg 50%
    17:00 +4°C° 0 mm 1 mps 689 mmHg 55%
    18:00 +2°C° 0 mm 1 mps 689 mmHg 60%
    19:00 +1°C° 0 mm 2 mps 689 mmHg 61%
    20:00 +1°C° 0 mm 2 mps 688 mmHg 63%
    21:00 -1°C° 0 mm 2 mps 688 mmHg 64%
    22:00 -1°C° 0 mm 2 mps 688 mmHg 65%
    23:00 -1°C° 0 mm 2 mps 688 mmHg 65%

    26 January, Thursday

    Time Temperature Precipitation Wind Pressure Humidity
    00:00 -1°C° 0 mm 2 mps 688 mmHg 66%
    01:00 -1°C° 0 mm 2 mps 687 mmHg 67%
    02:00 -1°C° 0 mm 2 mps 687 mmHg 67%
    03:00 -1°C° 0 mm 2 mps 687 mmHg 68%
    04:00 -1°C° 0 mm 2 mps 687 mmHg 69%
    05:00 -1°C° 0 mm 2 mps 687 mmHg 70%
    06:00 0°C° 0 mm 1 mps 687 mmHg 70%
    07:00 +2°C° 0 mm 1 mps 688 mmHg 67%
    08:00 +3°C° 0 mm 1 mps 688 mmHg 63%
    09:00 +4°C° 0 mm 1 mps 688 mmHg 60%
    10:00 +5°C° 0 mm 1 mps 688 mmHg 57%
    11:00 +5°C° 0 mm 2 mps 688 mmHg 55%
    12:00 +6°C° 0 mm 2 mps 688 mmHg 53%
    13:00 +6°C° 0.1 mm 2 mps 688 mmHg 55%
    14:00 +5°C° 0.1 mm 2 mps 688 mmHg 57%
    15:00 +5°C° 0.1 mm 2 mps 688 mmHg 59%
    16:00 +4°C° 0.1 mm 2 mps 688 mmHg 65%
    17:00 +3°C° 0.1 mm 1 mps 689 mmHg 70%
    18:00 +2°C° 0.1 mm 1 mps 689 mmHg 76%
    19:00 +2°C° 0.1 mm 1 mps 689 mmHg 77%
    20:00 +2°C° 0.1 mm 1 mps 689 mmHg 78%
    21:00 +2°C° 0.1 mm 1 mps 690 mmHg 79%
    22:00 +1°C° 0.4 mm 1 mps 690 mmHg 82%
    23:00 +1°C° 0.4 mm 1 mps 690 mmHg 84%
    Show more